Location: ??????
(41.3164°N, 22.6615°E)
Time: 01:33:43
(UTC+00:00)

IRIS - Pass Details

Date: 16 October 2021
Orbit: 279 x 2616 km, 41.2° (Epoch: 02 December)

Event Time Altitude Azimuth Distance (km) Brightness Sun altitude
Rises 16:19:37 0° 276° (W) 2,023 9.7 -6.9°
Reaches altitude 10° 16:21:36 10° 274° (W) 1,123 8.1 -7.3°
Maximum altitude 16:23:55 70° 190° (S) 300 3.6 -7.7°
Enters shadow 16:26:16 11° 105° (ESE) 1,133 5.8 -8.2°
